Time,TemperatureF,DewpointF,PressureIn,WindDirection,WindDirectionDegrees,WindSpeedMPH,WindSpeedGustMPH,Humidity,HourlyPrecipIn,Conditions,Clouds,dailyrainin,SoftwareType,DateUTC
2013-08-21 00:02:00,70.1,68.6,29.83,South,174,3.0,7.0,95,0.00,,,0.00,Wunderground v.1.15,2013-08-21 05:02:00,
2013-08-21 00:07:00,70.2,68.7,29.83,South,169,5.0,5.0,95,0.00,,,0.00,Wunderground v.1.15,2013-08-21 05:07:00,
2013-08-21 00:12:00,70.1,68.6,29.83,South,175,3.0,5.0,95,0.00,,,0.00,Wunderground v.1.15,2013-08-21 05:12:00,
2013-08-21 00:18:00,70.0,68.5,29.83,South,186,4.0,4.0,95,0.00,,,0.00,Wunderground v.1.15,2013-08-21 05:18:00,
2013-08-21 00:24:00,69.8,68.3,29.83,South,183,4.0,4.0,95,0.00,,,0.00,Wunderground v.1.15,2013-08-21 05:24:00,
2013-08-21 00:30:00,69.7,68.2,29.83,South,188,4.0,5.0,95,0.00,,,0.00,Wunderground v.1.15,2013-08-21 05:30:00,
2013-08-21 00:35:00,69.6,68.1,29.83,South,187,5.0,5.0,95,0.00,,,0.00,Wunderground v.1.15,2013-08-21 05:35:00,
2013-08-21 00:41:00,69.7,68.2,29.83,SSW,193,6.0,6.0,95,0.00,,,0.00,Wunderground v.1.15,2013-08-21 05:41:00,
2013-08-21 00:46:00,69.7,68.2,29.83,South,187,4.0,5.0,95,0.00,,,0.00,Wunderground v.1.15,2013-08-21 05:46:00,
2013-08-21 00:52:00,69.7,68.2,29.83,SSW,192,6.0,6.0,95,0.00,,,0.00,Wunderground v.1.15,2013-08-21 05:52:00,
2013-08-21 00:58:00,69.7,68.2,29.83,SSW,192,5.0,5.0,95,0.00,,,0.00,Wunderground v.1.15,2013-08-21 05:58:00,
2013-08-21 01:04:00,69.7,68.2,29.83,South,181,5.0,6.0,95,0.00,,,0.00,Wunderground v.1.15,2013-08-21 06:04:00,
2013-08-21 01:09:00,69.9,68.4,29.83,South,190,5.0,7.0,95,0.00,,,0.00,Wunderground v.1.15,2013-08-21 06:09:00,
2013-08-21 01:14:00,69.9,68.4,29.83,SSW,195,4.0,7.0,95,0.00,,,0.00,Wunderground v.1.15,2013-08-21 06:14:00,
2013-08-21 01:20:00,70.0,68.5,29.83,South,180,5.0,6.0,95,0.00,,,0.00,Wunderground v.1.15,2013-08-21 06:20:00,
2013-08-21 01:26:00,70.0,68.5,29.83,South,174,5.0,5.0,95,0.00,,,0.00,Wunderground v.1.15,2013-08-21 06:26:00,
2013-08-21 01:32:00,70.1,68.6,29.83,South,173,6.0,6.0,95,0.00,,,0.00,Wunderground v.1.15,2013-08-21 06:32:00,
2013-08-21 01:38:00,70.2,68.7,29.83,South,171,5.0,6.0,95,0.00,,,0.00,Wunderground v.1.15,2013-08-21 06:38:00,
2013-08-21 01:44:00,70.1,68.6,29.83,South,180,6.0,7.0,95,0.00,,,0.00,Wunderground v.1.15,2013-08-21 06:44:00,
2013-08-21 01:50:00,70.1,68.3,29.83,South,184,4.0,6.0,94,0.00,,,0.00,Wunderground v.1.15,2013-08-21 06:50:00,
2013-08-21 01:56:00,70.1,68.3,29.83,South,181,5.0,6.0,94,0.00,,,0.00,Wunderground v.1.15,2013-08-21 06:56:00,
2013-08-21 02:02:00,70.1,68.3,29.83,South,172,8.0,8.0,94,0.00,,,0.00,Wunderground v.1.15,2013-08-21 07:02:00,
2013-08-21 02:07:00,70.1,68.3,29.82,South,184,6.0,8.0,94,0.00,,,0.00,Wunderground v.1.15,2013-08-21 07:07:00,
2013-08-21 02:12:00,70.2,68.4,29.82,South,182,5.0,8.0,94,0.00,,,0.00,Wunderground v.1.15,2013-08-21 07:12:00,
2013-08-21 02:17:00,70.3,68.5,29.83,South,184,7.0,9.0,94,0.00,,,0.00,Wunderground v.1.15,2013-08-21 07:17:00,
2013-08-21 02:22:00,70.4,68.6,29.82,South,171,7.0,9.0,94,0.00,,,0.00,Wunderground v.1.15,2013-08-21 07:22:00,
2013-08-21 02:27:00,70.4,68.6,29.82,South,182,4.0,7.0,94,0.00,,,0.00,Wunderground v.1.15,2013-08-21 07:27:00,
2013-08-21 02:32:00,70.4,68.6,29.82,South,183,4.0,8.0,94,0.00,,,0.00,Wunderground v.1.15,2013-08-21 07:32:00,
2013-08-21 02:38:00,70.4,68.6,29.82,South,175,6.0,7.0,94,0.00,,,0.00,Wunderground v.1.15,2013-08-21 07:38:00,
2013-08-21 02:43:00,70.4,68.6,29.82,South,182,4.0,10.0,94,0.00,,,0.00,Wunderground v.1.15,2013-08-21 07:43:00,
2013-08-21 02:48:00,70.4,68.6,29.82,South,176,5.0,8.0,94,0.00,,,0.00,Wunderground v.1.15,2013-08-21 07:48:00,
2013-08-21 02:53:00,70.4,68.6,29.82,South,183,5.0,9.0,94,0.00,,,0.00,Wunderground v.1.15,2013-08-21 07:53:00,
2013-08-21 02:58:00,70.4,68.6,29.82,South,190,7.0,8.0,94,0.00,,,0.00,Wunderground v.1.15,2013-08-21 07:58:00,
2013-08-21 03:03:00,70.5,68.7,29.83,South,186,5.0,8.0,94,0.00,,,0.00,Wunderground v.1.15,2013-08-21 08:03:00,
2013-08-21 03:08:00,70.4,68.6,29.83,South,186,5.0,7.0,94,0.00,,,0.00,Wunderground v.1.15,2013-08-21 08:08:00,
2013-08-21 03:13:00,70.3,68.5,29.83,SSW,207,6.0,7.0,94,0.00,,,0.00,Wunderground v.1.15,2013-08-21 08:13:00,
2013-08-21 03:18:00,70.2,68.4,29.82,South,180,4.0,7.0,94,0.00,,,0.00,Wunderground v.1.15,2013-08-21 08:18:00,
2013-08-21 03:23:00,70.1,68.3,29.83,South,180,4.0,7.0,94,0.00,,,0.00,Wunderground v.1.15,2013-08-21 08:23:00,
2013-08-21 03:28:00,70.0,68.2,29.83,South,175,6.0,7.0,94,0.00,,,0.00,Wunderground v.1.15,2013-08-21 08:28:00,
2013-08-21 03:33:00,69.9,68.1,29.82,SSE,160,6.0,7.0,94,0.00,,,0.00,Wunderground v.1.15,2013-08-21 08:33:00,
2013-08-21 03:38:00,69.9,68.1,29.82,SSE,166,5.0,7.0,94,0.00,,,0.00,Wunderground v.1.15,2013-08-21 08:38:00,
2013-08-21 03:43:00,70.0,68.2,29.82,South,169,9.0,9.0,94,0.00,,,0.00,Wunderground v.1.15,2013-08-21 08:43:00,
2013-08-21 03:48:00,69.9,68.1,29.81,South,188,4.0,7.0,94,0.00,,,0.00,Wunderground v.1.15,2013-08-21 08:48:00,
2013-08-21 03:53:00,69.9,68.1,29.82,South,182,5.0,7.0,94,0.00,,,0.00,Wunderground v.1.15,2013-08-21 08:53:00,
2013-08-21 03:58:00,69.9,68.1,29.82,South,182,5.0,7.0,94,0.00,,,0.00,Wunderground v.1.15,2013-08-21 08:58:00,
2013-08-21 04:03:00,69.9,68.1,29.82,South,186,4.0,9.0,94,0.00,,,0.00,Wunderground v.1.15,2013-08-21 09:03:00,
2013-08-21 04:08:00,70.0,68.2,29.82,South,170,8.0,11.0,94,0.00,,,0.00,Wunderground v.1.15,2013-08-21 09:08:00,
2013-08-21 04:13:00,70.1,68.3,29.81,South,173,7.0,11.0,94,0.00,,,0.00,Wunderground v.1.15,2013-08-21 09:13:00,
2013-08-21 04:18:00,70.2,68.4,29.82,SSW,193,5.0,8.0,94,0.00,,,0.00,Wunderground v.1.15,2013-08-21 09:18:00,
2013-08-21 04:23:00,70.3,68.2,29.81,SSW,196,6.0,9.0,93,0.00,,,0.00,Wunderground v.1.15,2013-08-21 09:23:00,
2013-08-21 04:28:00,70.5,68.4,29.81,South,189,7.0,11.0,93,0.00,,,0.00,Wunderground v.1.15,2013-08-21 09:28:00,
2013-08-21 04:33:00,70.7,68.6,29.81,South,190,8.0,11.0,93,0.00,,,0.00,Wunderground v.1.15,2013-08-21 09:33:00,
2013-08-21 04:38:00,70.9,68.5,29.81,SSW,198,5.0,9.0,92,0.00,,,0.00,Wunderground v.1.15,2013-08-21 09:38:00,
2013-08-21 04:43:00,70.9,68.5,29.81,South,190,6.0,9.0,92,0.00,,,0.00,Wunderground v.1.15,2013-08-21 09:43:00,
2013-08-21 04:48:00,71.0,68.6,29.81,South,186,6.0,9.0,92,0.00,,,0.00,Wunderground v.1.15,2013-08-21 09:48:00,
2013-08-21 04:53:00,71.0,68.2,29.80,South,188,7.0,10.0,91,0.00,,,0.00,Wunderground v.1.15,2013-08-21 09:53:00,
2013-08-21 04:58:00,70.9,68.1,29.81,SSE,165,6.0,9.0,91,0.00,,,0.00,Wunderground v.1.15,2013-08-21 09:58:00,
2013-08-21 05:03:00,71.0,68.2,29.81,South,180,7.0,9.0,91,0.00,,,0.00,Wunderground v.1.15,2013-08-21 10:03:00,
2013-08-21 05:08:00,71.1,68.3,29.81,SSW,192,7.0,11.0,91,0.00,,,0.00,Wunderground v.1.15,2013-08-21 10:08:00,
2013-08-21 05:13:00,71.2,68.4,29.81,South,191,5.0,11.0,91,0.00,,,0.00,Wunderground v.1.15,2013-08-21 10:13:00,
2013-08-21 05:18:00,71.2,68.4,29.81,South,184,5.0,10.0,91,0.00,,,0.00,Wunderground v.1.15,2013-08-21 10:18:00,
2013-08-21 05:23:00,71.3,68.2,29.81,SW,214,9.0,12.0,90,0.00,,,0.00,Wunderground v.1.15,2013-08-21 10:23:00,
2013-08-21 05:28:00,71.4,68.3,29.81,SSW,200,8.0,11.0,90,0.00,,,0.00,Wunderground v.1.15,2013-08-21 10:28:00,
2013-08-21 05:33:00,71.3,68.2,29.81,SSW,211,7.0,11.0,90,0.00,,,0.00,Wunderground v.1.15,2013-08-21 10:33:00,
2013-08-21 05:38:00,71.3,68.2,29.81,SSW,203,7.0,10.0,90,0.00,,,0.00,Wunderground v.1.15,2013-08-21 10:38:00,
2013-08-21 05:43:00,71.3,68.2,29.81,South,187,8.0,11.0,90,0.00,,,0.00,Wunderground v.1.15,2013-08-21 10:43:00,
2013-08-21 05:48:00,71.3,67.9,29.81,SW,217,9.0,10.0,89,0.00,,,0.00,Wunderground v.1.15,2013-08-21 10:48:00,
2013-08-21 05:54:00,71.4,68.0,29.82,SSW,205,5.0,10.0,89,0.00,,,0.00,Wunderground v.1.15,2013-08-21 10:54:00,
2013-08-21 05:59:00,71.3,67.9,29.82,SW,217,7.0,10.0,89,0.00,,,0.00,Wunderground v.1.15,2013-08-21 10:59:00,
2013-08-21 06:04:00,71.3,67.9,29.82,SW,219,7.0,10.0,89,0.00,,,0.00,Wunderground v.1.15,2013-08-21 11:04:00,
2013-08-21 06:09:00,71.3,67.9,29.82,SSW,196,9.0,10.0,89,0.00,,,0.00,Wunderground v.1.15,2013-08-21 11:09:00,
2013-08-21 06:14:00,71.3,67.9,29.82,SSW,198,7.0,10.0,89,0.00,,,0.00,Wunderground v.1.15,2013-08-21 11:14:00,
2013-08-21 06:19:00,71.2,67.8,29.82,SSW,200,9.0,12.0,89,0.00,,,0.00,Wunderground v.1.15,2013-08-21 11:19:00,
2013-08-21 06:24:00,71.1,67.7,29.82,South,183,11.0,12.0,89,0.00,,,0.00,Wunderground v.1.15,2013-08-21 11:24:00,
2013-08-21 06:29:00,71.1,68.0,29.82,SSW,207,13.0,15.0,90,0.00,,,0.00,Wunderground v.1.15,2013-08-21 11:29:00,
2013-08-21 06:35:00,71.1,67.7,29.82,SSW,211,9.0,11.0,89,0.00,,,0.00,Wunderground v.1.15,2013-08-21 11:35:00,
2013-08-21 06:40:00,71.1,67.7,29.81,SSW,202,8.0,12.0,89,0.00,,,0.00,Wunderground v.1.15,2013-08-21 11:40:00,
2013-08-21 06:45:00,71.1,67.7,29.81,SSW,209,9.0,9.0,89,0.00,,,0.00,Wunderground v.1.15,2013-08-21 11:45:00,
2013-08-21 06:50:00,71.0,67.6,29.82,SSW,196,9.0,13.0,89,0.00,,,0.00,Wunderground v.1.15,2013-08-21 11:50:00,
2013-08-21 06:55:00,71.0,67.6,29.82,South,191,9.0,10.0,89,0.00,,,0.00,Wunderground v.1.15,2013-08-21 11:55:00,
2013-08-21 07:00:00,71.0,67.6,29.82,SSW,209,7.0,10.0,89,0.00,,,0.00,Wunderground v.1.15,2013-08-21 12:00:00,
2013-08-21 07:05:00,71.0,67.6,29.82,SSW,203,9.0,10.0,89,0.00,,,0.00,Wunderground v.1.15,2013-08-21 12:05:00,
2013-08-21 07:10:00,71.0,67.6,29.82,South,190,7.0,11.0,89,0.00,,,0.00,Wunderground v.1.15,2013-08-21 12:10:00,
2013-08-21 07:15:00,70.9,67.5,29.82,SW,227,9.0,9.0,89,0.00,,,0.00,Wunderground v.1.15,2013-08-21 12:15:00,
2013-08-21 07:21:00,70.9,67.8,29.82,SSW,197,9.0,11.0,90,0.00,,,0.00,Wunderground v.1.15,2013-08-21 12:21:00,
2013-08-21 07:26:00,71.0,67.6,29.82,SW,217,8.0,11.0,89,0.00,,,0.00,Wunderground v.1.15,2013-08-21 12:26:00,
2013-08-21 07:31:00,71.2,67.8,29.83,SSW,204,6.0,11.0,89,0.00,,,0.00,Wunderground v.1.15,2013-08-21 12:31:00,
2013-08-21 07:36:00,71.3,67.9,29.84,SSW,201,4.0,7.0,89,0.00,,,0.00,Wunderground v.1.15,2013-08-21 12:36:00,
2013-08-21 07:41:00,71.5,68.1,29.83,SSW,209,7.0,9.0,89,0.00,,,0.00,Wunderground v.1.15,2013-08-21 12:41:00,
2013-08-21 07:46:00,71.6,68.2,29.83,SSW,211,6.0,8.0,89,0.00,,,0.00,Wunderground v.1.15,2013-08-21 12:46:00,
2013-08-21 07:51:00,71.7,68.3,29.83,SSW,205,5.0,10.0,89,0.00,,,0.00,Wunderground v.1.15,2013-08-21 12:51:00,
2013-08-21 07:56:00,71.8,68.4,29.83,SW,220,4.0,7.0,89,0.00,,,0.00,Wunderground v.1.15,2013-08-21 12:56:00,
2013-08-21 08:01:00,72.1,68.3,29.84,SW,215,6.0,8.0,88,0.00,,,0.00,Wunderground v.1.15,2013-08-21 13:01:00,
2013-08-21 08:06:00,72.2,68.4,29.83,SSW,192,7.0,7.0,88,0.00,,,0.00,Wunderground v.1.15,2013-08-21 13:06:00,
2013-08-21 08:11:00,72.2,68.4,29.83,SSW,200,8.0,10.0,88,0.00,,,0.00,Wunderground v.1.15,2013-08-21 13:11:00,
2013-08-21 08:16:00,72.2,68.4,29.83,South,190,4.0,8.0,88,0.00,,,0.00,Wunderground v.1.15,2013-08-21 13:16:00,
2013-08-21 08:21:00,72.3,68.5,29.84,SSW,199,7.0,8.0,88,0.00,,,0.00,Wunderground v.1.15,2013-08-21 13:21:00,
2013-08-21 08:26:00,72.4,68.3,29.84,SW,215,5.0,7.0,87,0.00,,,0.00,Wunderground v.1.15,2013-08-21 13:26:00,
2013-08-21 08:31:00,72.5,68.4,29.84,SSW,209,5.0,7.0,87,0.00,,,0.00,Wunderground v.1.15,2013-08-21 13:31:00,
2013-08-21 08:36:00,72.5,68.4,29.83,SSW,205,6.0,7.0,87,0.00,,,0.00,Wunderground v.1.15,2013-08-21 13:36:00,
2013-08-21 08:41:00,72.4,68.3,29.83,SW,223,4.0,9.0,87,0.00,,,0.00,Wunderground v.1.15,2013-08-21 13:41:00,
2013-08-21 08:46:00,72.4,68.3,29.84,SW,216,5.0,6.0,87,0.00,,,0.00,Wunderground v.1.15,2013-08-21 13:46:00,
2013-08-21 08:51:00,72.4,68.3,29.84,SSW,208,3.0,7.0,87,0.00,,,0.00,Wunderground v.1.15,2013-08-21 13:51:00,
2013-08-21 08:56:00,72.4,68.3,29.84,SSW,196,5.0,5.0,87,0.00,,,0.00,Wunderground v.1.15,2013-08-21 13:56:00,
2013-08-21 09:01:00,72.4,68.3,29.84,SSW,205,5.0,8.0,87,0.00,,,0.00,Wunderground v.1.15,2013-08-21 14:01:00,
2013-08-21 09:06:00,72.4,68.3,29.84,SSW,208,8.0,8.0,87,0.00,,,0.00,Wunderground v.1.15,2013-08-21 14:06:00,
2013-08-21 09:11:00,72.5,68.4,29.84,SSW,212,5.0,9.0,87,0.00,,,0.00,Wunderground v.1.15,2013-08-21 14:11:00,
2013-08-21 09:16:00,72.5,68.4,29.84,SSW,208,5.0,8.0,87,0.00,,,0.00,Wunderground v.1.15,2013-08-21 14:16:00,
2013-08-21 09:21:00,72.6,68.5,29.84,South,183,5.0,9.0,87,0.00,,,0.00,Wunderground v.1.15,2013-08-21 14:21:00,
2013-08-21 09:26:00,72.8,68.4,29.84,SSW,202,6.0,8.0,86,0.00,,,0.00,Wunderground v.1.15,2013-08-21 14:26:00,
2013-08-21 09:31:00,72.9,68.5,29.85,South,171,8.0,9.0,86,0.00,,,0.00,Wunderground v.1.15,2013-08-21 14:31:00,
2013-08-21 09:36:00,73.0,68.6,29.84,South,190,6.0,7.0,86,0.00,,,0.00,Wunderground v.1.15,2013-08-21 14:36:00,
2013-08-21 09:41:00,73.0,68.6,29.84,SSW,202,6.0,10.0,86,0.00,,,0.00,Wunderground v.1.15,2013-08-21 14:41:00,
2013-08-21 09:46:00,73.1,68.7,29.85,South,186,7.0,8.0,86,0.00,,,0.00,Wunderground v.1.15,2013-08-21 14:46:00,
2013-08-21 09:51:00,73.3,68.9,29.85,SW,216,4.0,9.0,86,0.00,,,0.00,Wunderground v.1.15,2013-08-21 14:51:00,
2013-08-21 09:56:00,73.7,69.2,29.85,SSW,210,6.0,7.0,86,0.00,,,0.00,Wunderground v.1.15,2013-08-21 14:56:00,
2013-08-21 10:01:00,74.1,69.3,29.85,SSW,213,6.0,9.0,85,0.00,,,0.00,Wunderground v.1.15,2013-08-21 15:01:00,
2013-08-21 10:06:00,74.5,69.7,29.86,SW,231,6.0,8.0,85,0.00,,,0.00,Wunderground v.1.15,2013-08-21 15:06:00,
2013-08-21 10:11:00,74.8,70.0,29.86,SW,216,5.0,9.0,85,0.00,,,0.00,Wunderground v.1.15,2013-08-21 15:11:00,
2013-08-21 10:16:00,75.5,70.3,29.86,WSW,237,6.0,9.0,84,0.00,,,0.00,Wunderground v.1.15,2013-08-21 15:16:00,
2013-08-21 10:21:00,76.1,70.2,29.86,SW,227,8.0,10.0,82,0.00,,,0.00,Wunderground v.1.15,2013-08-21 15:21:00,
2013-08-21 10:26:00,76.6,70.7,29.86,SW,227,10.0,10.0,82,0.00,,,0.00,Wunderground v.1.15,2013-08-21 15:26:00,
2013-08-21 10:31:00,76.7,70.8,29.85,SW,220,7.0,12.0,82,0.00,,,0.00,Wunderground v.1.15,2013-08-21 15:31:00,
2013-08-21 10:36:00,76.9,70.3,29.85,SSW,196,9.0,12.0,80,0.00,,,0.00,Wunderground v.1.15,2013-08-21 15:36:00,
2013-08-21 10:41:00,77.2,70.5,29.86,SSW,213,7.0,12.0,80,0.00,,,0.00,Wunderground v.1.15,2013-08-21 15:41:00,
2013-08-21 10:46:00,77.5,70.8,29.86,SW,232,8.0,9.0,80,0.00,,,0.00,Wunderground v.1.15,2013-08-21 15:46:00,
2013-08-21 10:51:00,77.8,71.1,29.86,SSW,208,9.0,15.0,80,0.00,,,0.00,Wunderground v.1.15,2013-08-21 15:51:00,
2013-08-21 10:56:00,78.2,71.2,29.85,SSW,205,6.0,9.0,79,0.00,,,0.00,Wunderground v.1.15,2013-08-21 15:56:00,
2013-08-21 11:01:00,78.7,72.0,29.86,SW,231,10.0,10.0,80,0.00,,,0.00,Wunderground v.1.15,2013-08-21 16:01:00,
2013-08-21 11:06:00,78.8,71.0,29.85,SW,227,5.0,10.0,77,0.00,,,0.00,Wunderground v.1.15,2013-08-21 16:06:00,
2013-08-21 11:11:00,79.5,72.8,29.85,SSW,202,10.0,10.0,80,0.00,,,0.00,Wunderground v.1.15,2013-08-21 16:11:00,
2013-08-21 11:16:00,79.5,71.7,29.84,SSW,207,8.0,13.0,77,0.00,,,0.00,Wunderground v.1.15,2013-08-21 16:16:00,
2013-08-21 11:21:00,79.6,71.8,29.85,SW,226,5.0,13.0,77,0.00,,,0.00,Wunderground v.1.15,2013-08-21 16:21:00,
2013-08-21 11:26:00,79.6,71.8,29.86,SSW,211,9.0,12.0,77,0.00,,,0.00,Wunderground v.1.15,2013-08-21 16:26:00,
2013-08-21 11:31:00,80.0,71.8,29.86,SSW,200,8.0,12.0,76,0.00,,,0.00,Wunderground v.1.15,2013-08-21 16:31:00,
2013-08-21 11:36:00,80.2,72.3,29.85,SW,219,10.0,12.0,77,0.00,,,0.00,Wunderground v.1.15,2013-08-21 16:36:00,
2013-08-21 11:41:00,80.6,71.9,29.85,SW,232,11.0,13.0,75,0.00,,,0.00,Wunderground v.1.15,2013-08-21 16:41:00,
2013-08-21 11:46:00,81.1,72.4,29.85,SSW,208,9.0,14.0,75,0.00,,,0.00,Wunderground v.1.15,2013-08-21 16:46:00,
2013-08-21 11:52:00,80.9,72.2,29.85,SSW,209,7.0,14.0,75,0.00,,,0.00,Wunderground v.1.15,2013-08-21 16:52:00,
2013-08-21 11:57:00,80.6,71.9,29.85,SW,218,13.0,15.0,75,0.00,,,0.00,Wunderground v.1.15,2013-08-21 16:57:00,
2013-08-21 12:02:00,80.5,71.8,29.85,SW,218,10.0,15.0,75,0.00,,,0.00,Wunderground v.1.15,2013-08-21 17:02:00,
2013-08-21 12:07:00,80.6,72.3,29.85,SW,236,13.0,13.0,76,0.00,,,0.00,Wunderground v.1.15,2013-08-21 17:07:00,
2013-08-21 12:12:00,81.0,73.5,29.85,SSW,209,12.0,13.0,78,0.00,,,0.00,Wunderground v.1.15,2013-08-21 17:12:00,
2013-08-21 12:17:00,81.7,73.4,29.85,SW,216,12.0,13.0,76,0.00,,,0.00,Wunderground v.1.15,2013-08-21 17:17:00,
2013-08-21 12:22:00,81.4,73.1,29.85,SSW,201,7.0,14.0,76,0.00,,,0.00,Wunderground v.1.15,2013-08-21 17:22:00,
2013-08-21 12:27:00,81.6,72.9,29.85,SSW,205,10.0,14.0,75,0.00,,,0.00,Wunderground v.1.15,2013-08-21 17:27:00,
2013-08-21 12:32:00,81.9,73.2,29.85,SW,217,8.0,15.0,75,0.00,,,0.00,Wunderground v.1.15,2013-08-21 17:32:00,
2013-08-21 12:37:00,81.9,73.6,29.85,SSW,203,10.0,12.0,76,0.00,,,0.00,Wunderground v.1.15,2013-08-21 17:37:00,
2013-08-21 12:42:00,82.5,73.0,29.85,SSW,202,10.0,16.0,73,0.00,,,0.00,Wunderground v.1.15,2013-08-21 17:42:00,
2013-08-21 12:47:00,82.5,73.8,29.86,SW,220,8.0,15.0,75,0.00,,,0.00,Wunderground v.1.15,2013-08-21 17:47:00,
2013-08-21 12:52:00,83.0,73.9,29.86,SW,228,9.0,15.0,74,0.00,,,0.00,Wunderground v.1.15,2013-08-21 17:52:00,
2013-08-21 12:57:00,83.4,73.4,29.86,WSW,239,10.0,13.0,72,0.00,,,0.00,Wunderground v.1.15,2013-08-21 17:57:00,
2013-08-21 13:02:00,83.4,74.2,29.86,SW,219,8.0,14.0,74,0.00,,,0.00,Wunderground v.1.15,2013-08-21 18:02:00,
2013-08-21 13:07:00,83.4,73.8,29.86,West,264,9.0,14.0,73,0.00,,,0.00,Wunderground v.1.15,2013-08-21 18:07:00,
2013-08-21 13:12:00,83.7,74.1,29.86,SW,236,10.0,14.0,73,0.00,,,0.00,Wunderground v.1.15,2013-08-21 18:12:00,
2013-08-21 13:17:00,83.8,73.4,29.86,SW,231,12.0,13.0,71,0.00,,,0.00,Wunderground v.1.15,2013-08-21 18:17:00,
2013-08-21 13:22:00,83.7,73.7,29.86,West,260,7.0,13.0,72,0.00,,,0.00,Wunderground v.1.15,2013-08-21 18:22:00,
2013-08-21 13:27:00,84.5,74.1,29.86,West,266,11.0,11.0,71,0.00,,,0.00,Wunderground v.1.15,2013-08-21 18:27:00,
2013-08-21 13:32:00,84.6,74.6,29.86,WSW,242,5.0,15.0,72,0.00,,,0.00,Wunderground v.1.15,2013-08-21 18:32:00,
2013-08-21 13:37:00,84.6,74.2,29.86,SW,232,11.0,15.0,71,0.00,,,0.00,Wunderground v.1.15,2013-08-21 18:37:00,
2013-08-21 13:42:00,84.2,74.6,29.86,SW,227,9.0,15.0,73,0.00,,,0.00,Wunderground v.1.15,2013-08-21 18:42:00,
2013-08-21 13:47:00,84.8,74.3,29.86,SW,229,7.0,11.0,71,0.00,,,0.00,Wunderground v.1.15,2013-08-21 18:47:00,
2013-08-21 13:52:00,84.9,74.0,29.86,SW,234,6.0,11.0,70,0.00,,,0.00,Wunderground v.1.15,2013-08-21 18:52:00,
2013-08-21 13:57:00,84.2,74.2,29.86,South,186,4.0,9.0,72,0.00,,,0.00,Wunderground v.1.15,2013-08-21 18:57:00,
2013-08-21 14:02:00,83.6,74.0,29.86,SW,221,6.0,9.0,73,0.00,,,0.00,Wunderground v.1.15,2013-08-21 19:02:00,
2013-08-21 14:07:00,83.3,73.7,29.85,SSW,197,8.0,9.0,73,0.00,,,0.00,Wunderground v.1.15,2013-08-21 19:07:00,
2013-08-21 14:12:00,83.1,73.1,29.86,South,191,5.0,9.0,72,0.00,,,0.00,Wunderground v.1.15,2013-08-21 19:12:00,
2013-08-21 14:17:00,83.1,73.5,29.86,South,186,3.0,7.0,73,0.00,,,0.00,Wunderground v.1.15,2013-08-21 19:17:00,
2013-08-21 14:22:00,83.3,74.1,29.86,SW,228,5.0,7.0,74,0.00,,,0.00,Wunderground v.1.15,2013-08-21 19:22:00,
2013-08-21 14:27:00,83.0,73.4,29.86,South,180,3.0,6.0,73,0.00,,,0.00,Wunderground v.1.15,2013-08-21 19:27:00,
2013-08-21 14:32:00,82.6,73.1,29.86,South,171,5.0,7.0,73,0.00,,,0.00,Wunderground v.1.15,2013-08-21 19:32:00,
2013-08-21 14:37:00,82.3,73.2,29.85,SSE,163,4.0,6.0,74,0.00,,,0.00,Wunderground v.1.15,2013-08-21 19:37:00,
2013-08-21 14:43:00,82.2,73.1,29.86,South,184,5.0,8.0,74,0.00,,,0.00,Wunderground v.1.15,2013-08-21 19:43:00,
2013-08-21 14:48:00,81.9,72.8,29.87,SW,234,3.0,6.0,74,0.00,,,0.00,Wunderground v.1.15,2013-08-21 19:48:00,
2013-08-21 14:53:00,81.7,73.0,29.87,WSW,241,1.0,6.0,75,0.00,,,0.00,Wunderground v.1.15,2013-08-21 19:53:00,
2013-08-21 14:58:00,81.7,73.4,29.87,West,261,2.0,3.0,76,0.00,,,0.00,Wunderground v.1.15,2013-08-21 19:58:00,
2013-08-21 15:03:00,81.6,73.7,29.87,SW,236,2.0,4.0,77,0.00,,,0.00,Wunderground v.1.15,2013-08-21 20:03:00,
2013-08-21 15:08:00,81.6,74.1,29.87,West,265,2.0,3.0,78,0.00,,,0.00,Wunderground v.1.15,2013-08-21 20:08:00,
2013-08-21 15:13:00,81.8,73.9,29.87,WNW,282,1.0,3.0,77,0.00,,,0.00,Wunderground v.1.15,2013-08-21 20:13:00,
2013-08-21 15:18:00,81.9,74.4,29.87,WSW,257,4.0,4.0,78,0.00,,,0.00,Wunderground v.1.15,2013-08-21 20:18:00,
2013-08-21 15:23:00,81.4,74.3,29.88,WSW,237,3.0,6.0,79,0.00,,,0.00,Wunderground v.1.15,2013-08-21 20:23:00,
2013-08-21 15:28:00,81.3,73.8,29.88,SW,234,3.0,7.0,78,0.00,,,0.00,Wunderground v.1.15,2013-08-21 20:28:00,
2013-08-21 15:33:00,81.1,74.0,29.88,SSW,213,6.0,7.0,79,0.00,,,0.00,Wunderground v.1.15,2013-08-21 20:33:00,
2013-08-21 15:38:00,81.0,74.2,29.88,SW,227,2.0,4.0,80,0.00,,,0.00,Wunderground v.1.15,2013-08-21 20:38:00,
2013-08-21 15:43:00,80.9,74.1,29.88,South,178,2.0,5.0,80,0.00,,,0.00,Wunderground v.1.15,2013-08-21 20:43:00,
2013-08-21 15:48:00,80.9,74.1,29.88,WSW,240,3.0,3.0,80,0.00,,,0.00,Wunderground v.1.15,2013-08-21 20:48:00,
2013-08-21 15:54:00,80.9,74.5,29.88,SW,227,3.0,4.0,81,0.00,,,0.00,Wunderground v.1.15,2013-08-21 20:54:00,
2013-08-21 15:59:00,80.8,74.8,29.89,West,270,3.0,4.0,82,0.00,,,0.00,Wunderground v.1.15,2013-08-21 20:59:00,
2013-08-21 16:04:00,80.7,75.1,29.89,West,263,1.0,4.0,83,0.00,,,0.00,Wunderground v.1.15,2013-08-21 21:04:00,
2013-08-21 16:09:00,80.5,74.9,29.89,WSW,252,2.0,3.0,83,0.00,,,0.00,Wunderground v.1.15,2013-08-21 21:09:00,
2013-08-21 16:14:00,80.4,75.1,29.89,WSW,241,2.0,3.0,84,0.00,,,0.00,Wunderground v.1.15,2013-08-21 21:14:00,
2013-08-21 16:19:00,80.3,75.0,29.88,SW,214,3.0,3.0,84,0.00,,,0.00,Wunderground v.1.15,2013-08-21 21:19:00,
2013-08-21 16:24:00,80.3,75.0,29.88,WSW,237,3.0,4.0,84,0.00,,,0.00,Wunderground v.1.15,2013-08-21 21:24:00,
2013-08-21 16:29:00,80.3,74.7,29.88,SSW,193,4.0,4.0,83,0.00,,,0.00,Wunderground v.1.15,2013-08-21 21:29:00,
2013-08-21 16:34:00,80.2,74.6,29.88,SW,223,2.0,6.0,83,0.00,,,0.00,Wunderground v.1.15,2013-08-21 21:34:00,
2013-08-21 16:39:00,80.1,74.8,29.88,SSW,196,4.0,5.0,84,0.00,,,0.00,Wunderground v.1.15,2013-08-21 21:39:00,
2013-08-21 16:44:00,80.1,74.5,29.88,SW,229,3.0,7.0,83,0.00,,,0.00,Wunderground v.1.15,2013-08-21 21:44:00,
2013-08-21 16:49:00,80.1,74.8,29.88,SW,227,4.0,7.0,84,0.00,,,0.00,Wunderground v.1.15,2013-08-21 21:49:00,
2013-08-21 16:54:00,80.0,74.7,29.88,SW,223,4.0,7.0,84,0.00,,,0.00,Wunderground v.1.15,2013-08-21 21:54:00,
2013-08-21 16:59:00,79.9,74.6,29.88,SW,221,6.0,8.0,84,0.00,,,0.00,Wunderground v.1.15,2013-08-21 21:59:00,
2013-08-21 17:04:00,79.8,74.2,29.88,SW,227,4.0,9.0,83,0.00,,,0.00,Wunderground v.1.15,2013-08-21 22:04:00,
2013-08-21 17:09:00,79.9,74.6,29.88,WSW,238,5.0,7.0,84,0.00,,,0.00,Wunderground v.1.15,2013-08-21 22:09:00,
2013-08-21 17:14:00,80.0,74.0,29.88,SW,225,5.0,9.0,82,0.00,,,0.00,Wunderground v.1.15,2013-08-21 22:14:00,
2013-08-21 17:19:00,80.0,74.0,29.88,SW,234,5.0,7.0,82,0.00,,,0.00,Wunderground v.1.15,2013-08-21 22:19:00,
2013-08-21 17:24:00,80.0,74.0,29.88,WSW,239,5.0,8.0,82,0.00,,,0.00,Wunderground v.1.15,2013-08-21 22:24:00,
2013-08-21 17:29:00,80.1,74.1,29.88,West,261,6.0,7.0,82,0.00,,,0.00,Wunderground v.1.15,2013-08-21 22:29:00,
2013-08-21 17:34:00,80.4,73.7,29.87,WSW,242,5.0,8.0,80,0.00,,,0.00,Wunderground v.1.15,2013-08-21 22:34:00,
2013-08-21 17:39:00,80.5,73.8,29.87,SW,227,5.0,6.0,80,0.00,,,0.00,Wunderground v.1.15,2013-08-21 22:39:00,
2013-08-21 17:44:00,80.5,73.4,29.87,SW,217,2.0,8.0,79,0.00,,,0.00,Wunderground v.1.15,2013-08-21 22:44:00,
2013-08-21 17:49:00,80.5,73.4,29.87,SSW,211,2.0,7.0,79,0.00,,,0.00,Wunderground v.1.15,2013-08-21 22:49:00,
2013-08-21 17:54:00,80.5,73.8,29.87,SW,219,5.0,7.0,80,0.00,,,0.00,Wunderground v.1.15,2013-08-21 22:54:00,
2013-08-21 17:59:00,80.4,73.7,29.87,SW,217,5.0,6.0,80,0.00,,,0.00,Wunderground v.1.15,2013-08-21 22:59:00,
2013-08-21 18:04:00,80.1,73.7,29.88,WSW,245,2.0,6.0,81,0.00,,,0.00,Wunderground v.1.15,2013-08-21 23:04:00,
2013-08-21 18:09:00,79.8,73.4,29.88,WSW,245,0.0,4.0,81,0.00,,,0.00,Wunderground v.1.15,2013-08-21 23:09:00,
2013-08-21 18:14:00,79.7,73.7,29.88,WSW,245,0.0,4.0,82,0.00,,,0.00,Wunderground v.1.15,2013-08-21 23:14:00,
2013-08-21 18:19:00,79.8,73.8,29.88,WSW,245,0.0,1.0,82,0.00,,,0.00,Wunderground v.1.15,2013-08-21 23:19:00,
2013-08-21 18:25:00,79.7,73.7,29.89,WSW,245,2.0,2.0,82,0.00,,,0.00,Wunderground v.1.15,2013-08-21 23:25:00,
2013-08-21 18:30:00,79.4,74.1,29.89,West,261,2.0,2.0,84,0.00,,,0.00,Wunderground v.1.15,2013-08-21 23:30:00,
2013-08-21 18:35:00,79.3,73.7,29.89,WNW,300,2.0,4.0,83,0.00,,,0.00,Wunderground v.1.15,2013-08-21 23:35:00,
2013-08-21 18:40:00,79.3,73.3,29.90,WNW,292,4.0,7.0,82,0.00,,,0.00,Wunderground v.1.15,2013-08-21 23:40:00,
2013-08-21 18:45:00,79.2,73.6,29.90,WNW,295,5.0,9.0,83,0.00,,,0.00,Wunderground v.1.15,2013-08-21 23:45:00,
2013-08-21 18:50:00,79.1,73.1,29.90,NW,311,5.0,9.0,82,0.00,,,0.00,Wunderground v.1.15,2013-08-21 23:50:00,
2013-08-21 18:55:00,78.8,73.2,29.90,NW,313,3.0,4.0,83,0.00,,,0.00,Wunderground v.1.15,2013-08-21 23:55:00,
2013-08-21 19:00:00,78.5,73.3,29.90,NW,306,3.0,5.0,84,0.00,,,0.00,Wunderground v.1.15,2013-08-22 00:00:00,
2013-08-21 19:05:00,78.3,73.4,29.89,WNW,302,2.0,3.0,85,0.00,,,0.00,Wunderground v.1.15,2013-08-22 00:05:00,
2013-08-21 19:10:00,78.0,73.1,29.90,NW,318,1.0,4.0,85,0.00,,,0.00,Wunderground v.1.15,2013-08-22 00:10:00,
2013-08-21 19:15:00,77.6,73.4,29.90,NW,325,2.0,3.0,87,0.00,,,0.00,Wunderground v.1.15,2013-08-22 00:15:00,
2013-08-21 19:20:00,77.1,73.3,29.90,North,5,4.0,4.0,88,0.00,,,0.00,Wunderground v.1.15,2013-08-22 00:20:00,
2013-08-21 19:25:00,76.8,73.3,29.89,NNE,14,1.0,3.0,89,0.00,,,0.00,Wunderground v.1.15,2013-08-22 00:25:00,
2013-08-21 19:30:00,76.6,73.4,29.89,NNE,17,3.0,4.0,90,0.00,,,0.00,Wunderground v.1.15,2013-08-22 00:30:00,
2013-08-21 19:35:00,76.4,73.2,29.89,NE,49,3.0,3.0,90,0.00,,,0.00,Wunderground v.1.15,2013-08-22 00:35:00,
2013-08-21 19:40:00,76.4,73.2,29.88,East,92,1.0,4.0,90,0.00,,,0.00,Wunderground v.1.15,2013-08-22 00:40:00,
2013-08-21 19:45:00,76.5,73.3,29.88,East,87,1.0,2.0,90,0.00,,,0.00,Wunderground v.1.15,2013-08-22 00:45:00,
2013-08-21 19:50:00,76.6,73.4,29.87,ESE,120,3.0,4.0,90,0.00,,,0.00,Wunderground v.1.15,2013-08-22 00:50:00,
2013-08-21 19:56:00,76.5,73.3,29.87,SE,143,1.0,2.0,90,0.00,,,0.00,Wunderground v.1.15,2013-08-22 00:56:00,
2013-08-21 20:01:00,76.3,73.1,29.87,ENE,59,2.0,4.0,90,0.00,,,0.00,Wunderground v.1.15,2013-08-22 01:01:00,
2013-08-21 20:06:00,76.1,73.0,29.87,ENE,61,0.0,2.0,90,0.00,,,0.00,Wunderground v.1.15,2013-08-22 01:06:00,
2013-08-21 20:11:00,76.0,72.9,29.87,SE,138,1.0,4.0,90,0.00,,,0.00,Wunderground v.1.15,2013-08-22 01:11:00,
2013-08-21 20:16:00,75.8,72.7,29.87,SSE,155,1.0,2.0,90,0.00,,,0.00,Wunderground v.1.15,2013-08-22 01:16:00,
2013-08-21 20:21:00,75.8,72.7,29.87,North,355,5.0,5.0,90,0.00,,,0.00,Wunderground v.1.15,2013-08-22 01:21:00,
2013-08-21 20:26:00,75.6,72.8,29.88,NNW,336,2.0,4.0,91,0.00,,,0.00,Wunderground v.1.15,2013-08-22 01:26:00,
2013-08-21 20:31:00,75.1,72.6,29.88,NNW,336,1.0,4.0,92,0.00,,,0.00,Wunderground v.1.15,2013-08-22 01:31:00,
2013-08-21 20:36:00,75.0,72.5,29.89,North,351,4.0,4.0,92,0.00,,,0.00,Wunderground v.1.15,2013-08-22 01:36:00,
2013-08-21 20:41:00,74.8,72.3,29.90,NW,309,5.0,7.0,92,0.00,,,0.00,Wunderground v.1.15,2013-08-22 01:41:00,
2013-08-21 20:46:00,74.6,72.1,29.91,NW,304,5.0,8.0,92,0.00,,,0.00,Wunderground v.1.15,2013-08-22 01:46:00,
2013-08-21 20:51:00,74.5,72.3,29.91,NW,305,3.0,8.0,93,0.00,,,0.00,Wunderground v.1.15,2013-08-22 01:51:00,
2013-08-21 20:56:00,74.5,72.3,29.91,West,281,2.0,4.0,93,0.00,,,0.00,Wunderground v.1.15,2013-08-22 01:56:00,
2013-08-21 21:01:00,74.4,72.2,29.91,WNW,288,3.0,4.0,93,0.00,,,0.00,Wunderground v.1.15,2013-08-22 02:01:00,
2013-08-21 21:06:00,74.2,72.4,29.91,WNW,284,0.0,3.0,94,0.00,,,0.00,Wunderground v.1.15,2013-08-22 02:06:00,
2013-08-21 21:11:00,74.2,72.4,29.90,WNW,284,1.0,3.0,94,0.00,,,0.00,Wunderground v.1.15,2013-08-22 02:11:00,
2013-08-21 21:16:00,74.4,72.2,29.90,East,83,4.0,4.0,93,0.00,,,0.00,Wunderground v.1.15,2013-08-22 02:16:00,
2013-08-21 21:22:00,74.9,72.4,29.90,ENE,72,3.0,3.0,92,0.00,,,0.00,Wunderground v.1.15,2013-08-22 02:22:00,
2013-08-21 21:27:00,75.5,72.4,29.91,SE,125,2.0,4.0,90,0.00,,,0.00,Wunderground v.1.15,2013-08-22 02:27:00,
2013-08-21 21:32:00,75.3,72.2,29.90,SE,138,5.0,6.0,90,0.00,,,0.00,Wunderground v.1.15,2013-08-22 02:32:00,
2013-08-21 21:37:00,74.7,71.9,29.89,SE,133,3.0,8.0,91,0.00,,,0.00,Wunderground v.1.15,2013-08-22 02:37:00,
2013-08-21 21:42:00,74.1,71.9,29.89,NE,55,1.0,3.0,93,0.00,,,0.00,Wunderground v.1.15,2013-08-22 02:42:00,
2013-08-21 21:47:00,73.9,71.7,29.89,SSE,168,4.0,6.0,93,0.00,,,0.00,Wunderground v.1.15,2013-08-22 02:47:00,
2013-08-21 21:52:00,73.8,72.0,29.89,SSE,153,2.0,3.0,94,0.00,,,0.00,Wunderground v.1.15,2013-08-22 02:52:00,
2013-08-21 21:57:00,73.7,71.9,29.89,South,188,8.0,8.0,94,0.00,,,0.00,Wunderground v.1.15,2013-08-22 02:57:00,
2013-08-21 22:02:00,73.8,72.3,29.88,SE,137,3.0,5.0,95,0.00,,,0.00,Wunderground v.1.15,2013-08-22 03:02:00,
2013-08-21 22:07:00,74.1,72.3,29.89,North,355,8.0,9.0,94,0.00,,,0.00,Wunderground v.1.15,2013-08-22 03:07:00,
2013-08-21 22:12:00,74.1,71.9,29.90,North,5,11.0,13.0,93,0.00,,,0.00,Wunderground v.1.15,2013-08-22 03:12:00,
2013-08-21 22:17:00,73.9,72.1,29.91,NNE,25,3.0,9.0,94,0.00,,,0.00,Wunderground v.1.15,2013-08-22 03:17:00,
2013-08-21 22:22:00,73.8,72.0,29.91,NNE,20,5.0,9.0,94,0.00,,,0.00,Wunderground v.1.15,2013-08-22 03:22:00,
2013-08-21 22:27:00,73.8,72.0,29.91,NE,42,3.0,5.0,94,0.00,,,0.00,Wunderground v.1.15,2013-08-22 03:27:00,
2013-08-21 22:32:00,73.8,72.0,29.92,NW,322,2.0,5.0,94,0.00,,,0.00,Wunderground v.1.15,2013-08-22 03:32:00,
2013-08-21 22:37:00,73.6,71.8,29.92,ENE,59,2.0,3.0,94,0.00,,,0.00,Wunderground v.1.15,2013-08-22 03:37:00,
2013-08-21 22:42:00,73.6,71.8,29.90,ENE,72,2.0,3.0,94,0.00,,,0.00,Wunderground v.1.15,2013-08-22 03:42:00,
2013-08-21 22:47:00,74.0,71.8,29.90,ENE,78,1.0,3.0,93,0.00,,,0.00,Wunderground v.1.15,2013-08-22 03:47:00,
2013-08-21 22:52:00,74.6,72.4,29.90,SE,146,3.0,4.0,93,0.00,,,0.00,Wunderground v.1.15,2013-08-22 03:52:00,
2013-08-21 22:57:00,74.6,71.8,29.90,SE,132,2.0,4.0,91,0.00,,,0.00,Wunderground v.1.15,2013-08-22 03:57:00,
2013-08-21 23:01:00,74.3,72.1,29.90,NE,56,1.0,4.0,93,0.00,,,0.00,Wunderground v.1.15,2013-08-22 04:01:00,
2013-08-21 23:06:00,74.4,72.2,29.91,ESE,117,2.0,2.0,93,0.00,,,0.00,Wunderground v.1.15,2013-08-22 04:06:00,
2013-08-21 23:11:00,74.8,72.6,29.91,SE,141,1.0,4.0,93,0.00,,,0.00,Wunderground v.1.15,2013-08-22 04:11:00,
2013-08-21 23:16:00,74.9,72.4,29.92,SE,138,0.0,1.0,92,0.00,,,0.00,Wunderground v.1.15,2013-08-22 04:16:00,
2013-08-21 23:21:00,74.6,72.1,29.92,SE,138,2.0,2.0,92,0.00,,,0.00,Wunderground v.1.15,2013-08-22 04:21:00,
2013-08-21 23:26:00,74.0,71.5,29.92,West,263,4.0,4.0,92,0.00,,,0.00,Wunderground v.1.15,2013-08-22 04:26:00,
2013-08-21 23:31:00,73.5,71.4,29.91,West,263,1.0,4.0,93,0.00,,,0.00,Wunderground v.1.15,2013-08-22 04:31:00,
2013-08-21 23:36:00,73.1,71.3,29.91,West,263,1.0,2.0,94,0.00,,,0.00,Wunderground v.1.15,2013-08-22 04:36:00,
2013-08-21 23:42:00,72.8,71.0,29.91,NE,34,1.0,3.0,94,0.00,,,0.00,Wunderground v.1.15,2013-08-22 04:42:00,
2013-08-21 23:47:00,72.3,70.5,29.91,NNE,27,1.0,3.0,94,0.00,,,0.00,Wunderground v.1.15,2013-08-22 04:47:00,
2013-08-21 23:52:00,72.2,70.7,29.91,NNE,27,2.0,3.0,95,0.00,,,0.00,Wunderground v.1.15,2013-08-22 04:52:00,
2013-08-21 23:57:00,72.2,70.7,29.92,NNE,27,1.0,1.0,95,0.00,,,0.00,Wunderground v.1.15,2013-08-22 04:57:00,